| time (UTC) | temp C | wind direction | speed KPH | gust KPH | rain 1hr cm | rain 24hr cm | rain mn cm | humidity % | barometer mb |
| 20260906045732 | 20 | 0 | 0.0 | 0.0 | 0.00 | 0.00 | 0.00 | 54 | 1015.4 |
| 20260906044722 | 20 | 0 | 0.0 | 0.0 | 0.00 | 0.00 | 0.00 | 54 | 1015.3 |
| 20260906043712 | 20 | 0 | 0.0 | 0.0 | 0.00 | 0.00 | 0.00 | 53 | 1015.3 |
| 20260906042702 | 20 | 1 | 0.0 | 0.0 | 0.00 | 0.00 | 0.00 | 52 | 1015.2 |
| 20260906041652 | 21 | 2 | 0.0 | 0.0 | 0.00 | 0.00 | 0.00 | 50 | 1015.1 |
| 20260906040642 | 21 | 2 | 0.0 | 0.0 | 0.00 | 0.00 | 0.00 | 49 | 1014.9 |
| 20260906035632 | 21 | 2 | 0.0 | 0.0 | 0.00 | 0.00 | 0.00 | 42 | 1014.8 |
| 20260906034622 | 21 | 2 | 0.0 | 0.0 | 0.00 | 0.00 | 0.00 | 41 | 1014.7 |
| 20260906033612 | 21 | 2 | 0.0 | 0.0 | 0.00 | 0.00 | 0.00 | 41 | 1014.5 |
| 20260906032602 | 21 | 2 | 0.0 | 0.0 | 0.00 | 0.00 | 0.00 | 40 | 1014.2 |
| 20260906031552 | 22 | 2 | 0.0 | 0.0 | 0.00 | 0.00 | 0.00 | 39 | 1014.1 |
| 20260906030542 | 22 | 2 | 0.0 | 0.0 | 0.00 | 0.00 | 0.00 | 38 | 1014.0 |
| 20260906025532 | 22 | 2 | 0.0 | 0.0 | 0.00 | 0.00 | 0.00 | 37 | 1013.9 |
| 20260906024522 | 23 | 1 | 0.0 | 0.0 | 0.00 | 0.00 | 0.00 | 36 | 1013.9 |
| 20260906023512 | 23 | 1 | 0.0 | 0.0 | 0.00 | 0.00 | 0.00 | 35 | 1014.0 |
| 20260906022502 | 23 | 1 | 0.0 | 0.0 | 0.00 | 0.00 | 0.00 | 34 | 1014.0 |
| 20260906021452 | 24 | 1 | 0.0 | 0.0 | 0.00 | 0.00 | 0.00 | 33 | 1014.0 |
| 20260906020442 | 25 | 1 | 0.0 | 0.0 | 0.00 | 0.00 | 0.00 | 33 | 1014.0 |
| 20260906015432 | 25 | 1 | 0.0 | 0.0 | 0.00 | 0.00 | 0.00 | 33 | 1014.1 |
| 20260906014422 | 26 | 1 | 0.0 | 0.0 | 0.00 | 0.00 | 0.00 | 32 | 1014.1 |
| 20260906013412 | 26 | 2 | 0.0 | 0.0 | 0.00 | 0.00 | 0.00 | 31 | 1014.1 |
| 20260906012402 | 27 | 1 | 0.0 | 0.0 | 0.00 | 0.00 | 0.00 | 31 | 1014.1 |
| 20260906011352 | 27 | 1 | 0.0 | 0.0 | 0.00 | 0.00 | 0.00 | 30 | 1014.2 |
| 20260906010342 | 28 | 1 | 0.0 | 0.0 | 0.00 | 0.00 | 0.00 | 31 | 1014.1 |
| 20260906005332 | 28 | 2 | 0.0 | 0.0 | 0.00 | 0.00 | 0.00 | 32 | 1014.0 |
| 20260906004322 | 28 | 1 | 0.0 | 0.0 | 0.00 | 0.00 | 0.00 | 31 | 1013.9 |
| 20260906003312 | 29 | 1 | 0.0 | 0.0 | 0.00 | 0.00 | 0.00 | 30 | 1014.0 |
| 20260906002305 | 29 | 1 | 0.0 | 0.0 | 0.00 | 0.00 | 0.00 | 31 | 1014.0 |
| 20260906001252 | 30 | 1 | 0.0 | 0.0 | 0.00 | 0.00 | 0.00 | 31 | 1013.9 |
| 20260906000242 | 30 | 1 | 0.0 | 0.0 | 0.00 | 0.00 | 0.00 | 30 | 1014.0 |
| 20260905235232 | 30 | 1 | 0.0 | 0.0 | 0.00 | 0.00 | 0.00 | 29 | 1014.0 |
| 20260905234222 | 30 | 1 | 0.0 | 0.0 | 0.00 | 0.00 | 0.00 | 29 | 1014.1 |
| 20260905233212 | 30 | 1 | 0.0 | 0.0 | 0.00 | 0.00 | 0.00 | 29 | 1014.1 |
| 20260905232202 | 30 | 1 | 0.0 | 0.0 | 0.00 | 0.00 | 0.00 | 29 | 1014.2 |
| 20260905231152 | 30 | 1 | 0.0 | 0.0 | 0.00 | 0.00 | 0.00 | 29 | 1014.3 |
| 20260905230142 | 30 | 1 | 0.0 | 0.0 | 0.00 | 0.00 | 0.00 | 28 | 1014.5 |
| 20260905225132 | 30 | 1 | 0.0 | 0.0 | 0.00 | 0.00 | 0.00 | 28 | 1014.6 |
| 20260905224122 | 30 | 0 | 0.0 | 0.0 | 0.00 | 0.00 | 0.00 | 28 | 1014.7 |
| 20260905223112 | 30 | 1 | 0.0 | 0.0 | 0.00 | 0.00 | 0.00 | 29 | 1014.7 |
| 20260905222102 | 29 | 1 | 0.0 | 0.0 | 0.00 | 0.00 | 0.00 | 29 | 1014.7 |
| 20260905221052 | 29 | 0 | 0.0 | 0.0 | 0.00 | 0.00 | 0.00 | 30 | 1014.7 |
| 20260905220042 | 29 | 1 | 0.0 | 0.0 | 0.00 | 0.00 | 0.00 | 31 | 1014.8 |
| 20260905215032 | 29 | 1 | 0.0 | 0.0 | 0.00 | 0.00 | 0.00 | 31 | 1014.9 |
| 20260905214020 | 28 | 1 | 0.0 | 0.0 | 0.00 | 0.00 | 0.00 | 31 | 1015.0 |
| 20260905213010 | 28 | 1 | 0.0 | 0.0 | 0.00 | 0.00 | 0.00 | 31 | 1015.0 |
| 20260905212000 | 28 | 1 | 0.0 | 0.0 | 0.00 | 0.00 | 0.00 | 29 | 1015.1 |
| 20260905210950 | 27 | 1 | 0.0 | 0.0 | 0.00 | 0.00 | 0.00 | 27 | 1015.2 |
| 20260905205940 | 27 | 0 | 0.0 | 0.0 | 0.00 | 0.00 | 0.00 | 27 | 1015.1 |
| 20260905204930 | 27 | 0 | 0.0 | 0.0 | 0.00 | 0.00 | 0.00 | 28 | 1015.2 |
| 20260905203920 | 27 | 1 | 0.0 | 0.0 | 0.00 | 0.00 | 0.00 | 27 | 1015.2 |
| 20260905202910 | 27 | 1 | 0.0 | 0.0 | 0.00 | 0.00 | 0.00 | 30 | 1015.3 |
| 20260905201900 | 26 | 0 | 0.0 | 0.0 | 0.00 | 0.00 | 0.00 | 31 | 1015.2 |
| 20260905200850 | 26 | 1 | 0.0 | 0.0 | 0.00 | 0.00 | 0.00 | 33 | 1015.3 |
| 20260905195840 | 25 | 0 | 0.0 | 0.0 | 0.00 | 0.00 | 0.00 | 38 | 1015.4 |
| 20260905194830 | 25 | 0 | 0.0 | 0.0 | 0.00 | 0.00 | 0.00 | 39 | 1015.4 |
| 20260905193820 | 24 | 0 | 0.0 | 0.0 | 0.00 | 0.00 | 0.00 | 40 | 1015.5 |
| 20260905192810 | 23 | 0 | 0.0 | 0.0 | 0.00 | 0.00 | 0.00 | 38 | 1015.6 |
| 20260905191800 | 23 | 0 | 0.0 | 0.0 | 0.00 | 0.00 | 0.00 | 38 | 1015.7 |
| 20260905190750 | 22 | 0 | 0.0 | 0.0 | 0.00 | 0.00 | 0.00 | 40 | 1015.8 |
| 20260905185740 | 22 | 0 | 0.0 | 0.0 | 0.00 | 0.00 | 0.00 | 40 | 1015.8 |
| 20260905184730 | 22 | 1 | 0.0 | 0.0 | 0.00 | 0.00 | 0.00 | 41 | 1015.8 |
| 20260905183720 | 22 | 0 | 0.0 | 0.0 | 0.00 | 0.00 | 0.00 | 43 | 1015.8 |
| 20260905182710 | 21 | 0 | 0.0 | 0.0 | 0.00 | 0.00 | 0.00 | 45 | 1015.8 |
| 20260905181700 | 21 | 0 | 0.0 | 0.0 | 0.00 | 0.00 | 0.00 | 46 | 1015.7 |
| 20260905180650 | 21 | 0 | 0.0 | 0.0 | 0.00 | 0.00 | 0.00 | 49 | 1015.6 |
| 20260905175640 | 21 | 0 | 0.0 | 0.0 | 0.00 | 0.00 | 0.00 | 51 | 1015.6 |
| 20260905174630 | 20 | 0 | 0.0 | 0.0 | 0.00 | 0.00 | 0.00 | 54 | 1015.5 |
| 20260905173620 | 20 | 0 | 0.0 | 0.0 | 0.00 | 0.00 | 0.00 | 54 | 1015.5 |
| 20260905172610 | 19 | 0 | 0.0 | 0.0 | 0.00 | 0.00 | 0.00 | 55 | 1015.3 |
| 20260905171600 | 19 | 0 | 0.0 | 0.0 | 0.00 | 0.00 | 0.00 | 55 | 1015.2 |
| 20260905170550 | 18 | 0 | 0.0 | 0.0 | 0.00 | 0.00 | 0.00 | 55 | 1015.2 |
| 20260905165540 | 18 | 1 | 0.0 | 0.0 | 0.00 | 0.00 | 0.00 | 48 | 1015.2 |
| 20260905164530 | 18 | 1 | 0.0 | 0.0 | 0.00 | 0.00 | 0.00 | 49 | 1015.1 |
| 20260905163520 | 17 | 1 | 0.0 | 0.0 | 0.00 | 0.00 | 0.00 | 52 | 1015.0 |
| 20260905162510 | 17 | 1 | 0.0 | 0.0 | 0.00 | 0.00 | 0.00 | 54 | 1014.9 |
| 20260905161500 | 16 | 1 | 0.0 | 0.0 | 0.00 | 0.00 | 0.00 | 56 | 1014.9 |
| 20260905160450 | 15 | 1 | 0.0 | 0.0 | 0.00 | 0.00 | 0.00 | 59 | 1015.0 |
| 20260905155440 | 15 | 1 | 0.0 | 0.0 | 0.00 | 0.00 | 0.00 | 60 | 1014.9 |
| 20260905154430 | 14 | 1 | 0.0 | 0.0 | 0.00 | 0.00 | 0.00 | 60 | 1014.9 |
| 20260905153420 | 13 | 1 | 0.0 | 0.0 | 0.00 | 0.03 | 0.00 | 61 | 1014.8 |
| 20260905152410 | 13 | 1 | 0.0 | 0.0 | 0.00 | 0.03 | 0.00 | 62 | 1014.7 |
| 20260905151400 | 13 | 1 | 0.0 | 0.0 | 0.00 | 0.03 | 0.00 | 62 | 1014.7 |
| 20260905150350 | 13 | 1 | 0.0 | 0.0 | 0.00 | 0.03 | 0.00 | 63 | 1014.7 |
| 20260905145340 | 12 | 1 | 0.0 | 0.0 | 0.00 | 0.03 | 0.00 | 63 | 1014.6 |
| 20260905144330 | 12 | 1 | 0.0 | 0.0 | 0.00 | 0.03 | 0.00 | 63 | 1014.5 |
| 20260905143320 | 12 | 1 | 0.0 | 0.0 | 0.00 | 0.03 | 0.00 | 63 | 1014.5 |
| 20260905142310 | 12 | 1 | 0.0 | 0.0 | 0.00 | 0.03 | 0.00 | 63 | 1014.4 |
| 20260905141300 | 12 | 1 | 0.0 | 0.0 | 0.00 | 0.03 | 0.00 | 63 | 1014.4 |
| 20260905140250 | 12 | 1 | 0.0 | 0.0 | 0.00 | 0.03 | 0.00 | 64 | 1014.4 |
| 20260905135240 | 12 | 1 | 0.0 | 0.0 | 0.00 | 0.03 | 0.00 | 63 | 1014.2 |
| 20260905134230 | 12 | 1 | 0.0 | 0.0 | 0.00 | 0.03 | 0.00 | 63 | 1014.2 |
| 20260905133220 | 12 | 1 | 0.0 | 0.0 | 0.00 | 0.03 | 0.00 | 63 | 1014.2 |
| 20260905132210 | 12 | 1 | 0.0 | 0.0 | 0.00 | 0.03 | 0.00 | 63 | 1014.2 |
| 20260905131200 | 12 | 1 | 0.0 | 0.0 | 0.00 | 0.03 | 0.00 | 63 | 1014.2 |
| 20260905130150 | 12 | 1 | 0.0 | 0.0 | 0.00 | 0.03 | 0.00 | 63 | 1014.3 |
| 20260905125140 | 12 | 1 | 0.0 | 0.0 | 0.00 | 0.03 | 0.00 | 63 | 1014.2 |
| 20260905124130 | 12 | 1 | 0.0 | 0.0 | 0.00 | 0.03 | 0.00 | 63 | 1014.3 |
| 20260905123120 | 12 | 1 | 0.0 | 0.0 | 0.00 | 0.03 | 0.00 | 63 | 1014.3 |
| 20260905122110 | 12 | 1 | 0.0 | 0.0 | 0.00 | 0.03 | 0.00 | 64 | 1014.4 |
| 20260905121100 | 12 | 1 | 0.0 | 0.0 | 0.00 | 0.03 | 0.00 | 64 | 1014.3 |
| 20260905120050 | 12 | 1 | 0.0 | 0.0 | 0.00 | 0.03 | 0.00 | 63 | 1014.2 |
| 20260905115040 | 13 | 1 | 0.0 | 0.0 | 0.00 | 0.03 | 0.00 | 63 | 1014.1 |
| 20260905114030 | 13 | 1 | 0.0 | 0.0 | 0.00 | 0.03 | 0.00 | 63 | 1014.2 |
| 20260905113020 | 13 | 1 | 0.0 | 0.0 | 0.00 | 0.03 | 0.00 | 62 | 1014.3 |
| 20260905112010 | 13 | 1 | 0.0 | 0.0 | 0.00 | 0.03 | 0.00 | 62 | 1014.2 |
| 20260905111000 | 13 | 1 | 0.0 | 0.0 | 0.00 | 0.03 | 0.00 | 62 | 1014.4 |
| 20260905105950 | 13 | 1 | 0.0 | 0.0 | 0.00 | 0.03 | 0.00 | 62 | 1014.4 |
| 20260905104940 | 13 | 2 | 0.0 | 0.0 | 0.00 | 0.03 | 0.00 | 62 | 1014.3 |
| 20260905103930 | 13 | 1 | 0.0 | 0.0 | 0.00 | 0.03 | 0.00 | 61 | 1014.4 |
| 20260905102920 | 13 | 2 | 0.0 | 0.0 | 0.00 | 0.03 | 0.00 | 61 | 1014.5 |
| 20260905101910 | 13 | 1 | 0.0 | 0.0 | 0.00 | 0.03 | 0.00 | 62 | 1014.5 |
| 20260905100900 | 13 | 1 | 0.0 | 0.0 | 0.00 | 0.03 | 0.00 | 61 | 1014.5 |
| 20260905095850 | 13 | 2 | 0.0 | 0.0 | 0.00 | 0.03 | 0.00 | 61 | 1014.6 |
| 20260905094840 | 13 | 1 | 0.0 | 0.0 | 0.00 | 0.03 | 0.00 | 61 | 1014.6 |
| 20260905093830 | 14 | 2 | 0.0 | 0.0 | 0.00 | 0.03 | 0.00 | 61 | 1014.6 |
| 20260905092820 | 14 | 2 | 0.0 | 0.0 | 0.00 | 0.03 | 0.00 | 61 | 1014.7 |
| 20260905091810 | 14 | 2 | 0.0 | 0.0 | 0.00 | 0.03 | 0.00 | 61 | 1014.8 |
| 20260905090800 | 14 | 2 | 0.0 | 0.0 | 0.00 | 0.03 | 0.00 | 60 | 1014.9 |
| 20260905085750 | 15 | 2 | 0.0 | 0.0 | 0.00 | 0.03 | 0.00 | 60 | 1014.9 |
| 20260905084740 | 15 | 2 | 0.0 | 0.0 | 0.00 | 0.03 | 0.00 | 59 | 1015.0 |
| 20260905083730 | 15 | 1 | 0.0 | 0.0 | 0.00 | 0.03 | 0.00 | 59 | 1015.0 |
| 20260905082720 | 15 | 1 | 0.0 | 0.0 | 0.00 | 0.03 | 0.00 | 59 | 1015.1 |
| 20260905081710 | 15 | 1 | 0.0 | 0.0 | 0.00 | 0.03 | 0.00 | 59 | 1015.0 |
| 20260905080700 | 16 | 1 | 0.0 | 0.0 | 0.00 | 0.03 | 0.00 | 58 | 1015.2 |
| 20260905075650 | 16 | 2 | 0.0 | 0.0 | 0.00 | 0.03 | 0.00 | 58 | 1015.2 |
| 20260905074640 | 16 | 2 | 0.0 | 0.0 | 0.00 | 0.03 | 0.00 | 58 | 1015.1 |
| 20260905073630 | 16 | 1 | 0.0 | 0.0 | 0.00 | 0.05 | 0.00 | 60 | 1015.1 |
| 20260905072620 | 16 | 1 | 0.0 | 0.0 | 0.00 | 0.05 | 0.00 | 60 | 1015.1 |
| 20260905071610 | 16 | 1 | 0.0 | 0.0 | 0.00 | 0.08 | 0.00 | 59 | 1015.0 |
| 20260905070600 | 16 | 1 | 0.0 | 0.0 | 0.00 | 0.08 | 0.00 | 53 | 1015.0 |
| 20260905065550 | 16 | 2 | 0.0 | 0.0 | 0.00 | 0.08 | 0.08 | 53 | 1014.9 |
| 20260905064540 | 16 | 1 | 0.0 | 0.0 | 0.00 | 0.08 | 0.08 | 53 | 1014.9 |
| 20260905063530 | 17 | 1 | 0.0 | 0.0 | 0.00 | 0.10 | 0.08 | 52 | 1014.8 |
| 20260905062520 | 17 | 1 | 0.0 | 0.0 | 0.00 | 0.10 | 0.08 | 52 | 1014.8 |
| 20260905061510 | 17 | 1 | 0.0 | 0.0 | 0.00 | 0.10 | 0.08 | 52 | 1014.8 |
| 20260905060500 | 17 | 1 | 0.0 | 0.0 | 0.00 | 0.10 | 0.08 | 52 | 1015.0 |
| 20260905055450 | 17 | 1 | 0.0 | 0.0 | 0.00 | 0.10 | 0.08 | 51 | 1015.0 |
| 20260905054440 | 17 | 1 | 0.0 | 0.0 | 0.00 | 0.10 | 0.08 | 51 | 1015.0 |
| 20260905053430 | 17 | 1 | 0.0 | 0.0 | 0.00 | 0.10 | 0.08 | 51 | 1014.9 |
| 20260905052420 | 17 | 1 | 0.0 | 0.0 | 0.00 | 0.10 | 0.08 | 51 | 1014.9 |
| 20260905051410 | 18 | 1 | 0.0 | 0.0 | 0.00 | 0.10 | 0.08 | 51 | 1015.0 |
| 20260905050400 | 18 | 1 | 0.0 | 0.0 | 0.00 | 0.10 | 0.08 | 49 | 1015.1 |